Dati Storici

Data ora Umidita' aria (%) Temperatura aria (°C) Rad globale (W/m²) Gonioanemometro (°) Tacoanemometro (m/s) Pioggia (mm)
03-07-2020 19:30 57.3 % 25.098 -33.218 1.204 0 0
03-07-2020 19:20 56.9 % 25.2 -78.902 2.38 0 0
03-07-2020 19:10 56.1 % 25.607 -79.324 0.961 0 0
03-07-2020 19:00 54.8 % 25.697 -63.042 0.902 0 0
03-07-2020 18:50 55.5 % 25.518 -39.356 3.419 0 0
03-07-2020 18:40 57.1 % 25.487 -60.847 1.096 0 0
03-07-2020 18:30 57.7 % 25.583 -65.625 0.666 0 0
03-07-2020 18:20 57.2 % 25.565 -63.046 1.636 0 0
03-07-2020 18:10 56.9 % 25.656 -75.027 1.106 0 0
03-07-2020 18:00 56.6 % 25.383 -54.957 2.301 0 0
03-07-2020 17:50 57.7 % 25.56 -67.478 0.78 0 0
03-07-2020 17:40 56.5 % 25.509 -55.606 1.263 0 0
03-07-2020 17:30 55.7 % 25.748 -60.734 2.301 0 0
03-07-2020 17:20 56.8 % 25.735 -44.813 0.108 0 0
03-07-2020 17:10 56.3 % 25.391 -68.639 1.714 0 0
03-07-2020 17:00 56.3 % 25.59 -83.203 2.314 0 0
03-07-2020 16:50 55.9 % 25.607 -66.117 3.481 0 0
03-07-2020 16:40 55.4 % 25.78 -73.542 1.282 0 0
03-07-2020 16:30 54.8 % 25.961 -78.221 1.898 0 0
03-07-2020 16:20 55.5 % 25.794 -79.427 3.1 0 0

I dati sono presentati in modo automatico a scopo informativo. In seguito a verifica i dati possono subire modifiche o essere invalidati e non riportati negli archivi definitivi.